Simultaneous Nadir Overpasses (SNOs) Predictions

Prediction of SNOs between GOES-16 and FY3D Satellite Orbit:

Table of predicted SNOs for the next 14.0 days since TLE Epoch: 11/30/2024
Index Date Time (GOES-16) GOES-16 Lat,Lon FY3D Lat,Lon Distance(km) Time Diff (sec)
1 12/01/2024 08:01:31 -0.01, -75.20 0.75, -78.44 370.84 80
2 12/02/2024 07:40:08 -0.00, -75.19 -0.27, -73.90 146.83 80
3 12/03/2024 20:02:08 -0.00, -75.20 -0.90, -79.18 453.79 80
4 12/04/2024 19:46:05 -0.00, -75.20 0.12, -74.64 64.17 80
5 12/07/2024 07:49:13 0.00, -75.21 0.05, -75.34 15.24 80
6 12/09/2024 19:49:49 -0.00, -75.24 -0.22, -76.07 95.98 80
7 12/10/2024 19:33:46 -0.00, -75.25 0.83, -71.54 423.00 80
8 12/12/2024 07:55:37 -0.00, -75.26 0.35, -76.78 172.94 80
9 12/13/2024 07:34:14 -0.00, -75.27 -0.71, -72.24 345.93 80
